Regional Weather Roundup
Issued by NWS

Home | Current Version | Previous Version | Graphics & Text | Print | Product List | Glossary On
Versions: 1 2 3 4 5 6 7 8 9 10 11 12 13 14 15 16 17 18 19 20 21 22 23 24 25 26 27 28 29 30 31 32 33 34 35 36 37 38 39 40 41 42 43 44 45 46 47 48 49 50
000
ASUS43 KBIS 251010
RWRND

NORTH DAKOTA REGIONAL WEATHER ROUNDUP
NATIONAL WEATHER SERVICE BISMARCK ND
500 AM CDT MON JUL 25 2016

NOTE: "FAIR" INDICATES FEW OR NO CLOUDS BELOW 12,000 FEET WITH NO
SIGNIFICANT WEATHER AND/OR OBSTRUCTIONS TO VISIBILITY.


NDZ001>003-009>011-017-251100-
NORTHWEST NORTH DAKOTA

CITY           SKY/WX    TMP DP  RH WIND       PRES   REMARKS
WILLISTON      CLEAR     62  56  80 CALM      29.97F
MINOT          CLEAR     63  59  87 CALM      30.00F
MINOT AFB      CLEAR     57  55  94 E1        29.99F
$$

NDZ018>021-031>035-040>046-251100-
SOUTHWEST NORTH DAKOTA

CITY           SKY/WX    TMP DP  RH WIND       PRES   REMARKS
BISMARCK       CLEAR     61  58  90 NE6       30.03S
DICKINSON      CLEAR     57  50  77 S8        29.99F
GARRISON         N/A     58  56  93 E3        30.00F
HETTINGER ARPT CLEAR     64  49  57 SE5       30.03F
$$

NDZ004>008-012>016-024-026-027-054-251100-
NORTHEAST NORTH DAKOTA

CITY           SKY/WX    TMP DP  RH WIND       PRES   REMARKS
GRAND FORKS    CLEAR     60  57  89 W6        29.98S
GRND FRKS AFB  CLEAR     63  59  86 NW8       29.99S
DEVILS LAKE    CLEAR     62  59  90 CALM      30.03S
$$

NDZ022-023-025-028>030-036>039-047>053-251100-
SOUTHEAST NORTH DAKOTA

CITY           SKY/WX    TMP DP  RH WIND       PRES   REMARKS
FARGO          CLEAR     61  56  83 W3        30.01R
JAMESTOWN      CLEAR     59  58  96 CALM      30.03S
$$





USA.gov is the U.S. government's official web portal to all federal, state and local government web resources and services.